Regional Weather Roundup
Issued by NWS

Home | Current Version | Previous Version | Graphics & Text | Print | Product List | Glossary On
Versions: 1 2 3 4 5 6 7 8 9 10 11 12 13 14 15 16 17 18 19 20 21 22 23 24 25 26 27 28 29 30 31 32 33 34 35 36 37 38 39 40 41 42 43 44 45 46 47 48 49 50
000
ASUS43 KIND 220400
RWRIN

WEATHER ROUNDUP FOR INDIANA
NATIONAL WEATHER SERVICE INDIANAPOLIS IN
1200 AM EDT MON MAY 22 2017

NOTE: "FAIR" INDICATES FEW OR NO CLOUDS BELOW 12,000 FEET WITH NO
SIGNIFICANT WEATHER AND/OR OBSTRUCTIONS TO VISIBILITY.

* - STATION DOES NOT REPORT WEATHER SUCH AS PRECIPITATION OR FOG.

+ - STATION NOT QUALITY CONTROLLED BY THE NATIONAL WEATHER SERVICE.
    USE DATA WITH CAUTION...ESPECIALLY DEWPOINT AND RELATIVE
    HUMIDITY OBSERVATIONS.

INZ001>003-010>013-019-020-220500-
NORTHWEST INDIANA

CITY           SKY/WX    TMP DP  RH WIND       PRES   REMARKS
MICHIGAN CITY+ CLOUDY    52  37  58 W13       30.06S
MONTICELLO +   CLOUDY    51  44  76 W9        30.10S
RENSSELAER +   CLOUDY    52  43  71 SW8       30.09S

$$

LMZ046-743>745-220500-
SOUTHERN LAKE MICHIGAN

STATION/POSITION TIME  TEMP    WIND        PRES    WAVE
                       AIR SEA DIR/SP/G            HT
                 (UTC) (F)     (DEG/KT/KT) (MB)    (FT)
BURNS HARBOR     0340   53     240/ 14/ 20 1017.9R
MICHIGAN CITY    0330   52     240/ 21/ 23   N/A
5NW MICH CITY    0350   52 53  250/ 14/ 19   N/A     4

$$

INZ004-005-014>016-021>024-220500-
NORTH CENTRAL INDIANA

CITY           SKY/WX    TMP DP  RH WIND       PRES   REMARKS
GOSHEN         CLOUDY    53  41  63 W17G26    30.05R
SOUTH BEND     CLOUDY    51  40  65 W17G23    30.06R

$$

INZ006>009-017-018-025>027-220500-
NORTHEAST INDIANA

CITY           SKY/WX    TMP DP  RH WIND       PRES   REMARKS
ANGOLA *+      CLOUDY    57  46  67 W8        30.01R
FORT WAYNE     MOCLDY    56  47  71 W21G28    30.05R
KENDALLVILLE + CLOUDY    55  47  73 W16G22    30.04R

$$

INZ028-029-035-036-043>045-051>053-220500-
WEST CENTRAL INDIANA

CITY           SKY/WX    TMP DP  RH WIND       PRES   REMARKS
CRAWFORDSVL +  PTCLDY    50  42  74 W9        30.13S
LAFAYETTE      PTCLDY    49  42  77 W6        30.11R
TERRE HAUTE    CLEAR     55  45  68 NW6       30.13F

$$

INZ030>032-037>040-046>048-054>057-064-065-220500-
CENTRAL INDIANA

CITY           SKY/WX    TMP DP  RH WIND       PRES   REMARKS
CP ATTERBURY + CLOUDY    59  50  72 NW5       30.11R
INDIANAPOLIS   PTCLDY    56  48  74 W23G32    30.10R
-EAGLE CREEK   PTCLDY    57  47  69 NW17G24   30.10R
KOKOMO +       CLOUDY    53  46  77 W18       30.10S
SHELBYVILLE    CLOUDY    62  47  57 NW14      30.09R

$$

INZ033-034-041-042-049-050-058-059-220500-
EAST CENTRAL INDIANA

CITY           SKY/WX    TMP DP  RH WIND       PRES   REMARKS
MUNCIE         CLOUDY    59  48  67 W15G22    30.07R
RICHMOND +     CLEAR     57  50  77 NW12G17   30.07R

$$

INZ060-061-067>069-081>083-085>088-220500-
SOUTHWEST INDIANA

CITY           SKY/WX    TMP DP  RH WIND       PRES   REMARKS
EVANSVILLE     CLEAR     64  49  57 NW9       30.11S
HUNTINGBURG *+ CLEAR     61  53  75 NW8       30.10S

$$

INZ062-063-066-070>080-084-089>092-220500-
SOUTH CENTRAL AND SOUTHEAST INDIANA

CITY           SKY/WX    TMP DP  RH WIND       PRES   REMARKS
BLOOMINGTON    CLEAR     58  48  69 NW9G17    30.10R
MADISON *+     CLEAR     63  52  67 NW6       30.09S
SEYMOUR +      CLEAR     63  52  67 NW10      30.08R

$$





USA.gov is the U.S. government's official web portal to all federal, state and local government web resources and services.